Location: Unspecified
(0.0000°N, 0.0000°E)
Time: 11:33:04
(UTC+00:00)

Explorer 11/Cluster Stage 4 - Pass Details

Date: 06 October 2020
Orbit: 467 x 1258 km, 28.8° (Epoch: 28 October)

Event Time Altitude Azimuth Distance (km) Brightness Sun altitude
Rises 06:51:30 0° 279° (W) 3,981 9.5 15.8°
Reaches altitude 10° 06:54:30 10° 270° (W) 3,103 9.1 16.5°
Maximum altitude 07:01:33 35° 208° (SSW) 1,913 8.5 18.3°
Drops below altitude 10° 07:08:52 10° 146° (SE) 3,214 10.4 20.1°
Sets 07:12:03 0° 137° (SE) 4,139 11.0 20.9°
